Weather in Krasnogvardeyskiy

Russia / Sverdlovsk Oblast     57°22′43″N   62°18′58″E
temp.,
°C
wind,
m/s
gust,
m/s
humid.,
%
clouds,
%
prec.,
mm/h
press.,
hPa
HPBL,
m
1 july, fri
fri123:00+8n24841 0.1 101269
02:00+5n27965 0.0 1013151
05:00+4nw279729 0.0 1014162
08:00+11nw3570100 0.0 1014426
11:00+15nnw4559100 0.0 1014966
14:00+17n4553100 0.0 10141231
17:00+15nnw3661100 0.0 1014598
20:00+15wnw257072 0.0 1014163
2 july, sat
sat223:00+11wnw2678100 0.0 1014107
02:00+12nw2678100 0.0 1013145
05:00+12nw247464 0.0 101387
08:00+16nw246450 0.0 1012397
11:00+19n3448100 0.0 10121387
14:00+19nnw135055 0.0 10121010
17:00+22wnw134430 0.0 10111848
20:00+17wnw1170100 0.0 101115
3 july, sun
sun323:00+16sw237098 0.0 101070
02:00+15wsw2671100 0.0 1010121
05:00+14w2776100 0.0 1009176
08:00+15nw2578100 0.0 1009196
11:00+17nw2471100 0.0 1009332
14:00+17nnw2375100 0.1 1009275
17:00+14n2697100 2.2 1010305
20:00+13nne3799100 2.1 1010423
4 july, mon
mon423:00+11nne399872 2.2 1011468
02:00+11nne3998100 0.0 1011533
05:00+10n3997100 0.0 1011369
08:00+12nne488212 0.0 1011577
11:00+16nne475018 0.1 10111904
14:00+15nne5754100 0.2 10111491
17:00+15nne5651100 0.2 10111863
20:00+12n4864100 0.0 1011728
5 july, tue
tue523:00+9n398158 0.0 1012233
02:00+6nnw2788100 0.0 1011123
05:00+7nnw288698 0.0 1011180
08:00+12nnw3665100 0.0 1011388
11:00+17n354631 0.0 10111476
14:00+19n3540100 0.0 10101880
17:00+14n2566100 0.0 1010192
20:00+12nw2371100 0.0 101082